EW2112 Weather Reports


Display with metric or nautical units.
time (UTC)temp
F
wind
direction
speed
MPH
gust
MPH
rain 1hr
in
rain 24hr
in
rain mn
in
humidity
%
barometer
mb
20260505071528 70 188 2.0 6.0 0.00 0.00 0.00 43 1014.0
20260505070027 71 213 2.0 6.0 0.00 0.00 0.00 41 1013.9
20260505064523 72 203 2.0 7.0 0.00 0.00 0.00 40 1013.6
20260505063033 73 200 4.0 7.0 0.00 0.00 0.00 38 1013.4
20260505061529 74 219 4.0 8.0 0.00 0.00 0.00 39 1013.3
20260505060022 74 234 3.0 8.0 0.00 0.00 0.00 40 1013.4
20260505054523 75 219 3.0 7.0 0.00 0.00 0.00 38 1013.2
20260505053020 75 247 2.0 7.0 0.00 0.00 0.00 40 1013.2
20260505051520 75 271 2.0 7.0 0.00 0.00 0.00 40 1013.3
20260505041513 74 189 0.0 7.0 0.00 0.00 0.00 42 1012.9
20260505040013 75 227 3.0 8.0 0.00 0.00 0.00 41 1012.9
20260505034514 74 157 3.0 8.0 0.00 0.00 0.00 43 1012.8
20260505033020 73 228 2.0 11.0 0.00 0.00 0.00 43 1012.9
20260505031508 74 263 3.0 10.0 0.00 0.00 0.00 42 1013.1
20260505030007 73 191 6.0 10.0 0.00 0.00 0.00 43 1013.2
20260505024515 72 213 3.0 15.0 0.00 0.09 0.00 44 1013.4
20260505023003 72 268 5.0 11.0 0.00 0.09 0.00 45 1013.6
20260505021613 72 242 3.0 8.0 0.00 0.09 0.00 47 1013.7
20260505020101 71 264 2.0 9.0 0.00 0.09 0.00 48 1013.9
20260505014555 70 216 4.0 11.0 0.00 0.17 0.00 48 1014.0
20260505013056 69 281 3.0 10.0 0.00 0.17 0.00 52 1014.5
20260505011555 69 285 5.0 10.0 0.00 0.17 0.00 52 1014.6
20260505010047 68 284 2.0 10.0 0.00 0.17 0.00 54 1014.8
20260505004547 68 279 3.0 11.0 0.00 0.18 0.00 54 1015.0
20260505003042 67 268 3.0 10.0 0.00 0.18 0.00 57 1015.2
20260505001540 66 284 4.0 10.0 0.00 0.18 0.00 58 1015.2
20260505000039 66 290 3.0 11.0 0.00 0.18 0.00 58 1015.3
20260504234533 65 295 2.0 8.0 0.00 0.20 0.00 60 1015.4
20260504233029 65 263 1.0 9.0 0.00 0.20 0.00 61 1015.4
20260504231526 64 289 3.0 8.0 0.00 0.20 0.00 66 1015.5
20260504230026 63 327 3.0 6.0 0.00 0.20 0.00 68 1015.5
20260504224523 61 310 3.0 6.0 0.00 0.20 0.00 72 1015.6
20260504223020 60 284 1.0 4.0 0.00 0.20 0.00 76 1015.6
20260504221518 58 302 0.0 4.0 0.00 0.20 0.00 80 1015.7
20260504220021 57 9 0.0 5.0 0.00 0.20 0.00 83 1015.4
20260504214513 56 11 2.0 5.0 0.00 0.20 0.00 85 1015.0
20260504213009 55 23 2.0 5.0 0.00 0.20 0.00 89 1014.7
20260504211505 54 340 2.0 4.0 0.00 0.20 0.00 94 1014.5
20260504210006 52 213 0.0 1.0 0.00 0.20 0.00 92 1014.3
20260504204502 52 213 0.0 0.0 0.00 0.20 0.00 92 1014.1
20260504203059 53 213 0.0 0.0 0.00 0.20 0.00 91 1013.7
20260504201559 54 213 0.0 1.0 0.00 0.20 0.00 92 1013.6
20260504194550 55 213 0.0 2.0 0.00 0.20 0.00 93 1013.4
20260504193049 54 213 0.0 2.0 0.00 0.20 0.00 93 1013.2
20260504191546 54 210 0.0 0.0 0.00 0.20 0.00 92 1013.1
20260504190045 55 210 0.0 0.0 0.00 0.20 0.00 92 1013.1
20260504184543 55 210 0.0 0.0 0.00 0.20 0.00 92 1012.9
20260504183040 55 210 0.0 1.0 0.00 0.20 0.00 91 1012.6
20260504181543 56 210 0.0 0.0 0.00 0.20 0.00 90 1012.4
20260504180036 56 210 0.0 0.0 0.00 0.20 0.00 91 1012.4
20260504174534 57 210 0.0 0.0 0.00 0.20 0.00 90 1012.4
20260504173032 57 210 0.0 0.0 0.00 0.20 0.00 90 1012.4
20260504171530 58 210 0.0 0.0 0.00 0.20 0.00 89 1012.5
20260504081551 69 5 2.0 8.0 0.00 0.20 0.20 77 1010.7